TimePDT,TemperatureF,Dew PointF,Humidity,Sea Level PressureIn,VisibilityMPH,Wind Direction,Wind SpeedMPH,Gust SpeedMPH,PrecipitationIn,Events,Conditions,WindDirDegrees,DateUTC
12:15 AM,28.4,19.4,69,30.34,10.0,ENE,4.6,-,N/A,,Clear,70,2012-10-05 07:15:00
12:35 AM,30.2,21.2,69,30.34,10.0,ENE,6.9,-,N/A,,Clear,70,2012-10-05 07:35:00
12:55 AM,30.2,19.4,64,30.34,10.0,ENE,6.9,-,N/A,,Clear,60,2012-10-05 07:55:00
1:15 AM,30.2,21.2,69,30.35,10.0,NE,8.1,-,N/A,,Clear,50,2012-10-05 08:15:00
1:35 AM,30.2,21.2,69,30.35,10.0,East,5.8,-,N/A,,Clear,80,2012-10-05 08:35:00
1:55 AM,32.0,23.0,69,30.35,10.0,East,5.8,-,N/A,,Clear,80,2012-10-05 08:55:00
2:15 AM,32.0,23.0,69,30.36,10.0,ENE,6.9,-,N/A,,Clear,60,2012-10-05 09:15:00
2:35 AM,30.2,21.2,69,30.35,10.0,ENE,6.9,-,N/A,,Clear,60,2012-10-05 09:35:00
2:55 AM,30.2,23.0,75,30.36,10.0,ENE,6.9,-,N/A,,Clear,60,2012-10-05 09:55:00
3:15 AM,30.2,21.2,69,30.35,10.0,ENE,5.8,-,N/A,,Clear,60,2012-10-05 10:15:00
3:35 AM,35.6,26.6,70,30.35,10.0,NE,11.5,-,N/A,,Clear,40,2012-10-05 10:35:00
3:55 AM,32.0,21.2,64,30.35,10.0,ENE,9.2,-,N/A,,Clear,60,2012-10-05 10:55:00
4:15 AM,30.2,21.2,69,30.36,10.0,ENE,9.2,-,N/A,,Clear,70,2012-10-05 11:15:00
4:35 AM,30.2,21.2,69,30.35,10.0,ENE,9.2,-,N/A,,Clear,70,2012-10-05 11:35:00
4:55 AM,28.4,23.0,80,30.35,10.0,East,9.2,-,N/A,,Clear,80,2012-10-05 11:55:00
5:15 AM,30.2,23.0,75,30.36,10.0,ENE,9.2,-,N/A,,Clear,70,2012-10-05 12:15:00
5:35 AM,30.2,24.8,80,30.36,10.0,ENE,10.4,-,N/A,,Clear,70,2012-10-05 12:35:00
5:55 AM,30.2,23.0,75,30.36,10.0,ENE,9.2,-,N/A,,Clear,70,2012-10-05 12:55:00
6:15 AM,28.4,21.2,74,30.37,10.0,NE,9.2,-,N/A,,Clear,50,2012-10-05 13:15:00
6:35 AM,28.4,21.2,74,30.38,10.0,ENE,8.1,-,N/A,,Clear,60,2012-10-05 13:35:00
6:55 AM,30.2,24.8,80,30.39,10.0,East,6.9,-,N/A,,Clear,80,2012-10-05 13:55:00
7:15 AM,30.2,24.8,80,30.39,10.0,East,6.9,-,N/A,,Clear,80,2012-10-05 14:15:00
7:35 AM,32.0,24.8,75,30.40,10.0,East,6.9,-,N/A,,Clear,80,2012-10-05 14:35:00
7:55 AM,33.8,26.6,75,30.40,10.0,ENE,5.8,-,N/A,,Clear,70,2012-10-05 14:55:00
8:15 AM,35.6,24.8,65,30.40,10.0,NE,12.7,-,N/A,,Clear,40,2012-10-05 15:15:00
8:35 AM,37.4,26.6,65,30.41,10.0,NNE,12.7,-,N/A,,Clear,30,2012-10-05 15:35:00
8:55 AM,39.2,26.6,61,30.40,10.0,NNE,13.8,17.3,N/A,,Clear,20,2012-10-05 15:55:00
9:35 AM,42.8,26.6,53,30.41,10.0,NNE,17.3,-,N/A,,Clear,20,2012-10-05 16:35:00
9:55 AM,44.6,28.4,53,30.41,10.0,NNE,17.3,20.7,N/A,,Clear,30,2012-10-05 16:55:00
10:15 AM,46.4,30.2,53,30.41,10.0,NNE,17.3,-,N/A,,Clear,30,2012-10-05 17:15:00
10:35 AM,48.2,28.4,46,30.40,10.0,NNE,15.0,-,N/A,,Clear,30,2012-10-05 17:35:00
10:55 AM,50.0,28.4,43,30.40,10.0,NNE,12.7,-,N/A,,Clear,30,2012-10-05 17:55:00
11:35 AM,51.8,26.6,38,30.39,10.0,NNE,8.1,-,N/A,,Clear,30,2012-10-05 18:35:00
11:55 AM,51.8,24.8,35,30.38,10.0,NNE,6.9,-,N/A,,Clear,20,2012-10-05 18:55:00
12:15 PM,53.6,21.2,28,30.38,10.0,NNE,5.8,-,N/A,,Clear,30,2012-10-05 19:15:00
12:35 PM,53.6,24.8,33,30.37,10.0,Calm,Calm,-,N/A,,Clear,0,2012-10-05 19:35:00
12:55 PM,53.6,23.0,30,30.36,10.0,NE,6.9,-,N/A,,Clear,40,2012-10-05 19:55:00
1:15 PM,55.4,21.2,26,30.36,10.0,North,8.1,-,N/A,,Clear,10,2012-10-05 20:15:00
1:35 PM,57.2,19.4,23,30.35,10.0,NE,9.2,-,N/A,,Clear,40,2012-10-05 20:35:00
1:55 PM,55.4,19.4,25,30.34,10.0,NNE,3.5,-,N/A,,Clear,20,2012-10-05 20:55:00
2:15 PM,57.2,21.2,25,30.33,10.0,North,3.5,-,N/A,,Clear,350,2012-10-05 21:15:00
2:35 PM,57.2,6.8,13,30.33,10.0,NNW,4.6,-,N/A,,Clear,330,2012-10-05 21:35:00
2:55 PM,57.2,3.2,11,30.33,10.0,ENE,4.6,-,N/A,,Clear,70,2012-10-05 21:55:00
3:15 PM,59.0,15.8,19,30.32,10.0,NNE,6.9,-,N/A,,Clear,20,2012-10-05 22:15:00
3:35 PM,59.0,6.8,13,30.32,10.0,NE,8.1,-,N/A,,Clear,50,2012-10-05 22:35:00
3:55 PM,57.2,3.2,11,30.32,10.0,North,8.1,16.1,N/A,,Clear,10,2012-10-05 22:55:00
4:15 PM,57.2,30.2,36,30.32,10.0,NE,10.4,-,N/A,,Clear,40,2012-10-05 23:15:00
4:35 PM,57.2,3.2,11,30.32,10.0,NE,11.5,-,N/A,,Clear,40,2012-10-05 23:35:00
4:55 PM,57.2,39.2,51,30.32,10.0,North,11.5,-,N/A,,Clear,10,2012-10-05 23:55:00
5:15 PM,55.4,15.8,21,30.31,10.0,NNE,11.5,-,N/A,,Clear,30,2012-10-06 00:15:00
5:35 PM,55.4,15.8,21,30.31,10.0,NNE,10.4,-,N/A,,Clear,30,2012-10-06 00:35:00
5:55 PM,53.6,17.6,24,30.31,10.0,NE,8.1,-,N/A,,Clear,40,2012-10-06 00:55:00
6:15 PM,51.8,17.6,26,30.32,10.0,NNE,8.1,-,N/A,,Clear,30,2012-10-06 01:15:00
6:35 PM,46.4,17.6,32,30.32,10.0,NNE,6.9,-,N/A,,Clear,30,2012-10-06 01:35:00
6:55 PM,46.4,17.6,32,30.32,10.0,NNE,5.8,-,N/A,,Clear,30,2012-10-06 01:55:00
7:15 PM,42.8,17.6,36,30.32,10.0,ESE,5.8,-,N/A,,Clear,110,2012-10-06 02:15:00
7:35 PM,44.6,17.6,34,30.32,10.0,NE,6.9,-,N/A,,Clear,50,2012-10-06 02:35:00
7:55 PM,42.8,17.6,36,30.33,10.0,NNE,5.8,-,N/A,,Clear,30,2012-10-06 02:55:00
8:35 PM,42.8,19.4,39,30.33,10.0,NE,6.9,-,N/A,,Clear,50,2012-10-06 03:35:00
8:55 PM,42.8,21.2,42,30.33,10.0,NNE,5.8,-,N/A,,Clear,30,2012-10-06 03:55:00
9:15 PM,41.0,19.4,42,30.33,10.0,NNE,8.1,-,N/A,,Clear,30,2012-10-06 04:15:00
9:35 PM,37.4,17.6,45,30.33,10.0,ENE,5.8,-,N/A,,Clear,60,2012-10-06 04:35:00
9:55 PM,37.4,21.2,52,30.33,10.0,Calm,Calm,-,N/A,,Clear,0,2012-10-06 04:55:00
10:15 PM,35.6,19.4,52,30.33,10.0,Calm,Calm,-,N/A,,Clear,0,2012-10-06 05:15:00
10:35 PM,35.6,19.4,52,30.34,10.0,East,4.6,-,N/A,,Clear,80,2012-10-06 05:35:00
10:55 PM,33.8,19.4,56,30.34,0.5,NNE,5.8,-,N/A,,Unknown,30,2012-10-06 05:55:00
11:15 PM,33.8,17.6,52,30.34,4.0,Calm,Calm,-,N/A,,Clear,0,2012-10-06 06:15:00
11:35 PM,32.0,17.6,55,30.34,10.0,NE,3.5,-,N/A,,Clear,50,2012-10-06 06:35:00
11:55 PM,32.0,19.4,60,30.34,0.5,NE,4.6,-,N/A,,Unknown,40,2012-10-06 06:55:00